Tracking 29892 objects as of 21-Nov-2024
HD Live streaming from Space Station
objects crossing your sky now

STARLINK-3509

Track STARLINK-3509 now!
10-day predictions
STARLINK-3509 is classified as:


NORAD ID: 51737
Int'l Code: 2022-016Z
Perigee: 545.8 km
Apogee: 547.9 km
Inclination: 53.2 °
Period: 95.4 minutes
Semi major axis: 6917 km
RCS: Unknown
Launch date: February 21, 2022
Source: United States (US)
Launch site: AIR FORCE EASTERN TEST RANGE (AFETR)
Your satellite tracking list
Your tracking list is empty




NASA's NSSDC Master Catalog

Two Line Element Set (TLE):
1 51737U 22016Z   24325.90681230  .00002778  00000-0  19251-3 0  9994
2 51737  53.2147 286.0086 0001495  96.7989 263.3173 15.08845039153090
Source of the keplerian elements: AFSPC